Regional Weather Roundup
Issued by NWS

Home | Current Version | Previous Version | Text Only | Print | Product List | Glossary Off
Versions: 1 2 3 4 5 6 7 8 9 10 11 12 13 14 15 16 17 18 19 20 21 22 23 24 25 26 27 28 29 30 31 32 33 34 35 36 37 38 39 40 41 42 43 44 45 46 47 48 49 50

000
ASUS45 KTFX 290304
RWRMT
MONTANA HOURLY WEATHER ROUNDUP
NATIONAL WEATHER SERVICE GREAT FALLS MT
904 PM MDT SAT MAR 28 2015

NOTE: "FAIR" INDICATES FEW OR NO CLOUDS BELOW 12000 FEET WITH NO
SIGNIFICANT WEATHER AND/OR OBSTRUCTIONS TO VISIBILITY.

* THESE STATIONS ARE NOT UNDER NWS QUALITY CONTROL. THEY DO NOT
   REPORT WEATHER SUCH AS PRECIPITATION OR FOG.

MTZ001>007-043-290400-
WEST OF THE DIVIDE
CITY           SKY/WX    TMP DP  RH WIND       PRES   REMARKS
KALISPELL      LGT RAIN  46  37  71 SW6       30.21R
MISSOULA       PTCLDY    46  30  54 W12       30.29R
BUTTE          PTCLDY    39  19  45 NW14      30.24R WCI  31
MULLAN PASS    CLOUDY    32  32 100 CALM      30.26R
* ESSEX        N/A       38  37  96 SE2        N/A
* LINCOLN      N/A       42  31  65 SW7G21     N/A
* LOOKOUT PASS N/A       40  34  79 E3         N/A
* POLSON       N/A       40  36  86 S2         N/A
* RONAN APT    MOCLDY    45  37  74 N/A        N/A
* SEELEY LAKE  N/A       39  34  82 SE1G11     N/A
* THOMP F APT  CLOUDY    42  11  28 N8G23      N/A
$$

MTZ008-052>055-290400-
SOUTHWEST MONTANA
CITY           SKY/WX    TMP DP  RH WIND       PRES   REMARKS
BOZEMAN        CLOUDY    46  21  37 W14       30.20R
DILLON         PTCLDY    41  16  36 NW6       30.24R
* W YELLOWSTON MOCLDY    39  12  33 NW3G10     N/A
* THREE FORKS  PTCLDY    48  19  32 N/A        N/A
* TWIN BRIDGES PTCLDY    46  16  30 W17G28     N/A
* BOULDER HILL N/A       40  18  41 SE5G14     N/A   WCI  36
* HOMESTAKE PS N/A       36  19  50 W19G34     N/A   WCI  25
* MONIDA PASS  N/A       36  13  39 N12G20     N/A   WCI  28
* RAYNOLDS PAS N/A       38  36  93 NW18       N/A   WCI  28
* WHITEHALL    N/A       47  19  33 W12G25     N/A
* WISE RIVER   N/A       39  21  48 W25G35     N/A   WCI  28
$$

MTZ009>010-012-014-046-048-049-054-290400-
EAST SLOPES AND CENTRAL MONTANA
CITY           SKY/WX    TMP DP  RH WIND       PRES   REMARKS
CUT BANK       CLOUDY    43  30  60 W23G32    30.05R
GREAT FALLS    CLOUDY    48  25  41 W17G29    30.09R
HELENA         MOCLDY    48  27  44 W24G36    30.15R
* DEARBORN     N/A       50  27  41 S12G17     N/A
* EAST GLACIER N/A       41  29  62 W12G25     N/A
* MONARCH      N/A       35  30  82 NW22G34    N/A   WCI  23
* PENDROY      N/A       43  25  49 NW19G29    N/A
* ROGERS PASS  N/A       37  27  67 SE18G34    N/A   WCI  27
* SAINT MARY   N/A       40  30  68 S9G20      N/A   WCI  34
$$

MTZ011-013-016-021-035-040-045-047-050-051-290400-
NORTH CENTRAL MONTANA
CITY           SKY/WX    TMP DP  RH WIND       PRES   REMARKS
HAVRE          CLOUDY    45  41  86 W16G26    30.02R
LEWISTOWN      RAIN      39  36  89 W20G31    30.05R WCI  29
* N BAR RANCH  HAZE      37  34  89 NW33G61   29.98R WCI  24
* MALTA APT    CLOUDY    46  39  77 W23G29     N/A
* CHESTER      N/A       44  36  74 NW17G25    N/A
* DENTON       N/A       40  38  93 W26G37     N/A   WCI  29
* GEYSER       N/A       38  36  93 W19G31     N/A   WCI  28
* JUDITH GAP   N/A       43  24  47 NW19G31    N/A
* LOMA         N/A       47  38  71 W20        N/A
$$

MTZ017>020-022>027-061-062-290400-
NORTHEAST MONTANA
CITY           SKY/WX    TMP DP  RH WIND       PRES   REMARKS
GLASGOW        LGT RAIN  45  41  86 W22G29    29.75R
GLENDIVE       PTCLDY    50  36  59 W15G25    29.75R
JORDAN         MOCLDY    45  37  74 W26G41    29.82R
SIDNEY         MOCLDY    52  34  50 W26G35    29.67S
WOLF POINT     LGT RAIN  48  41  77 W24G37    29.71R
* BEAVER HILL  N/A       50  36  59 W20G27     N/A
* CIRCLE       N/A       48  39  71 W13G29     N/A
* LINDSAY DVD  N/A       48  35  61 W21G33     N/A
* NAVAJO       N/A       46  45  96 NW17G24    N/A
* SACO         N/A       46  43  89 W22G28     N/A
$$

MTZ028>042-056>058-290400-
SOUTHCENTRAL AND SOUTHEAST MONTANA
CITY           SKY/WX    TMP DP  RH WIND       PRES   REMARKS
BAKER          CLEAR     45  37  74 W13       29.77R
BILLINGS       PTCLDY    50  18  28 W17G29    30.01R
LIVINGSTON     MOCLDY    48  18  30 W29G39    30.12R
MILES CITY     PTCLDY    52  27  38 NW28G39   29.83R
* LAUREL APT   CLEAR     52  16  24 W26G37     N/A
* ROUNDUP APT  MOCLDY    52  21  30 W17G26     N/A
* ALZADA       N/A       55  16  21 W21G27     N/A
* HYSHAM       N/A       50  18  28 NW18G26    N/A
* LAME DEER    N/A       50  14  24 W23G39     N/A
* REED POINT   N/A       52  20  28 W29G38     N/A
* ROSCOE HILL  N/A       45   4  18 W8G25      N/A
$$

REGIONAL REPORTS...DAKOTAS
CITY           SKY/WX    TMP DP  RH WIND       PRES   REMARKS
WILLISTON      LGT RAIN  52  43  72 W29G36    29.61R
DICKINSON      MOCLDY    48  39  71 W22       29.67R
CROSBY         CLOUDY    48  48 100 W12       29.57R
WATFORD CITY   CLOUDY    52  37  57 W26G41    29.62R
BISMARCK       LGT RAIN  55  52  90 W7        29.61R
GRAND FORKS    CLOUDY    46  30  54 S21G31    29.56F
FARGO          LGT RAIN  45  30  56 SE28G38   29.64F
BUFFALO SD     PTCLDY    50  39  66 NW22      29.72R
RAPID CITY     PTCLDY    59  37  44 NW39G49   29.73R
$$

REGIONAL REPORTS...WYOMING/IDAHO/WASHINGTON
CITY           SKY/WX    TMP DP  RH WIND       PRES   REMARKS
GILLETTE       CLOUDY    52  12  20 NW22G37   29.91R
SHERIDAN       PTCLDY    54  14  20 NW36G45   29.94R
CODY           MOCLDY    54  10  17 NW22G36   30.03R
YELLOWSTONE LA CLOUDY    34  12  40 W6        30.21R WCI  29
SALMON         CLEAR     43  21  42 N8        30.25R
MULLAN PASS    CLOUDY    32  32 100 CALM      30.26S
SAND POINT     CLOUDY    46  41  83 CALM      30.22R
SPOKANE        CLOUDY    52  34  50 SW12      30.24R
$$

REGIONAL REPORTS...SASKATCHEWAN
CITY           SKY/WX    TMP DP  RH WIND       PRES   REMARKS
SWIFT CURRENT  CLOUDY    39  37  93 NW23G31   29.82R WCI  28

$$



USA.gov is the U.S. government's official web portal to all federal, state and local government web resources and services.